[[{"header":{"parameterUnit":"m.s-1","parameterCategory":2,"la1":30.2991,"la2":30.254,"lo1":-89.0895,"lo2":-89.0444,"dy":0.0017,"dx":0.0017,"nx":28,"ny":28,"refTime":"2023-07-31T03:00:00:Z","depth":"0","parameterNumber":2,"parameterNumberName":"U-component_of_CURRENTS"},"data":[0,0,0,0,0,0,0,0,0,0,0,0,0,0,0,0,0,0,0,0,0,0,0,0,0,0,0,0,0,0,0,0,0,0,0,0,0,0,0,0,0,0,0,0,0,0,0,0,0,0,0,0,0,0,0,0,0,0,0.2172,0.2173,0,0.2263,0.2263,0.2264,0.2276,0.2276,0.2275,0.2274,0.2324,0.2326,0.2328,0,0,0,0,0,0,0,0,0,0,0,0,0,0.2044,0.2046,0.2172,0.2173,0.2175,0.2262,0.2263,0.2264,0.2276,0.2276,0.2275,0.2274,0.2324,0.2326,0.2328,0,0,0,0,0,0,0,0,0,0,0,0,0,0.2111,0.2046,0.2172,0.2193,0.2196,0.2262,0.2263,0.2265,0.2277,0.2275,0.2274,0.2274,0.2323,0.2326,0.2329,0.2367,0,0,0.2338,0.2339,0,0,0,0,0,0,0,0,0.2107,0.2116,0.2188,0.2191,0.2195,0.2259,0.2237,0.2298,0.2277,0.2244,0.2274,0.2273,0.2301,0.2306,0.2322,0.2369,0.2371,0.2338,0.234,0.2341,0.2342,0,0,0,0,0,0,0,0.2103,0.2112,0.2206,0.219,0.2194,0.221,0.2217,0.2249,0.2274,0.2246,0.2248,0.2262,0.2302,0.2319,0.2323,0.2372,0.2338,0.234,0.2342,0.2343,0.2489,0.2491,0,0,0,0,0,0,0.2096,0.2108,0.2203,0.2209,0.215,0.2213,0.2221,0.2238,0.2275,0.2281,0.2263,0.2262,0.2315,0.232,0.2325,0.2403,0.2341,0.2344,0.2345,0.2487,0.2489,0.2492,0,0,0,0,0,0,0.2093,0.2103,0.2199,0.2162,0.2175,0.2216,0.2234,0.224,0.2262,0.2288,0.2292,0.2279,0.2314,0.2321,0.2367,0.2403,0.2345,0.2348,0.2484,0.2487,0.249,0.2538,0,0,0,0,0,0,0.2088,0.2102,0.2112,0.2161,0.2177,0.2249,0.2235,0.2243,0.2273,0.2273,0.2304,0.2307,0.2314,0.2362,0.237,0.2406,0.235,0.2482,0.2486,0.2489,0.2533,0.2542,0.2549,0,0,0,0,0,0.2084,0.2107,0.2112,0.2124,0.219,0.2251,0.2261,0.2284,0.2275,0.2297,0.2316,0.2306,0.2392,0.2367,0.2375,0.2413,0.248,0.2485,0.2489,0.253,0.254,0.2549,0,0,0,0,0,0,0.2059,0.2113,0.2119,0.2157,0.2204,0.2254,0.228,0.2291,0.2325,0.2321,0.2333,0.234,0.2395,0.2401,0.2372,0.2468,0.2435,0.2442,0.2464,0.2474,0.2481,0.2527,0.2352,0,0,0,0,0,0.2059,0.209,0.2142,0.2174,0.2197,0.2237,0.2264,0.2281,0.2318,0.2331,0.2352,0.238,0.2423,0.2443,0.2476,0.2528,0.265,0.2559,0.2567,0.2573,0.2618,0.2921,0.2963,0.2507,0.2507,0.2507,0,0,0.2057,0.2093,0.2109,0.2171,0.2206,0.2254,0.2251,0.2298,0.2333,0.2332,0.2382,0.241,0.2444,0.2504,0.2529,0.2511,0.2747,0.2579,0.2585,0.2626,0.2931,0.2976,0.3017,0.251,0.251,0.2509,0,0,0.2085,0.2104,0.2145,0.2184,0.2243,0.227,0.2284,0.2338,0.2357,0.2411,0.2424,0.2499,0.2526,0.2593,0.262,0.2702,0.2783,0.2677,0.2755,0.3048,0.309,0.3129,0.3261,0.3312,0.2679,0.2679,0.2679,0,0.208,0.2137,0.2167,0.222,0.2251,0.2278,0.2325,0.2359,0.2418,0.2467,0.243,0.258,0.2592,0.2727,0.2734,0.2727,0.2855,0.2708,0.3066,0.3107,0.3147,0.3274,0.333,0.2682,0.2682,0.2682,0.2681,0,0.2148,0.2186,0.2216,0.2284,0.2322,0.2367,0.2412,0.245,0.2466,0.2528,0.2653,0.2701,0.2816,0.2804,0.2781,0.3033,0.3015,0.3047,0.3051,0.3197,0.3318,0.3375,0.2686,0.2685,0.2684,0.2684,0,0,0.2163,0.2243,0.2253,0.229,0.2353,0.2398,0.2452,0.2546,0.2625,0.2691,0.284,0.2904,0.2975,0.3015,0.3025,0.3226,0.3551,0.3238,0.3252,0.3382,0.4118,0.4075,0.4132,0.3672,0.3684,0.3693,0.4062,0,0.2208,0.2299,0.2322,0.2403,0.2457,0.2481,0.2542,0.263,0.2701,0.2852,0.2966,0.3108,0.3043,0.3114,0.3319,0.3504,0.3718,0.3442,0.3946,0.3959,0.3921,0.4206,0.4116,0.4441,0.4118,0.4128,0.4135,0,0.2293,0.233,0.2406,0.248,0.2505,0.2542,0.2656,0.2715,0.2913,0.299,0.3176,0.3285,0.3544,0.3495,0.3956,0.3788,0.3976,0.4106,0.4127,0.4131,0.4031,0.4261,0.4557,0.4401,0.4223,0.4216,0.421,0,0.2336,0.2408,0.246,0.2483,0.2561,0.2587,0.2625,0.277,0.2894,0.3115,0.3296,0.3557,0.3771,0.4063,0.4286,0.4189,0.4804,0.4722,0.4854,0.4844,0.4893,0.487,0.5129,0.5152,0.5151,0.515,0.5149,0,0.2417,0.249,0.2474,0.2504,0.2612,0.2612,0.2758,0.2836,0.3028,0.3261,0.34,0.3656,0.3958,0.4299,0.4448,0.4833,0.4976,0.4958,0.5016,0.4887,0.4861,0.482,0.473,0.5163,0.516,0.5158,0.5155,0,0.262,0.2547,0.2655,0.2656,0.2652,0.276,0.2876,0.3004,0.3134,0.3453,0.3565,0.3885,0.4272,0.4526,0.4998,0.5085,0.5299,0.5497,0.5226,0.5247,0.515,0.5064,0.5248,0.5116,0.5723,0.5726,0.5728,0,0.2821,0.2836,0.2827,0.2841,0.286,0.2952,0.3023,0.3093,0.3248,0.3594,0.3798,0.4201,0.4473,0.5056,0.5311,0.5627,0.5432,0.5713,0.5536,0.5228,0.5178,0.4886,0.4736,0.5574,0.5575,0.5575,0.5576,0,0.3152,0.3078,0.3098,0.3123,0.3141,0.3238,0.3317,0.3435,0.3557,0.3776,0.4049,0.4248,0.4793,0.5074,0.5478,0.5649,0.5446,0.5729,0.559,0.527,0.4811,0.4677,0.51,0.558,0.5579,0.5579,0.5579,0.5579,0.3385,0.3457,0.3326,0.3388,0.3407,0.3419,0.344,0.3529,0.3671,0.3865,0.4117,0.4337,0.4839,0.5368,0.5476,0.5634,0.5521,0.5564,0.5535,0.5298,0.5046,0.5387,0.581,0.5811,0.5812,0.5812,0.5813,0,0.3531,0.349,0.3577,0.3477,0.3504,0.3495,0.3551,0.351,0.3552,0.3819,0.3964,0.4436,0.4812,0.5154,0.5563,0.5472,0.5206,0.5352,0.4947,0.4848,0.5378,0.5239,0.5342,0.5342,0.5342,0.5342,0.5342,0.5342,0.3537,0.3531,0.3526,0.3484,0.347,0.3379,0.336,0.3328,0.3427,0.3565,0.3766,0.4019,0.4577,0.5189,0.5322,0.5258,0.4856,0.4738,0.4628,0.5006,0.5019,0.5031,0.4879,0.4905,0.4905,0.3914,0.3907,0.3902]},{"header":{"parameterUnit":"m.s-1","parameterCategory":2,"la1":30.2991,"la2":30.254,"lo1":-89.0895,"lo2":-89.0444,"dy":0.0017,"dx":0.0017,"nx":28,"ny":28,"refTime":"2023-07-31T03:00:00:Z","depth":"0","parameterNumber":3,"parameterNumberName":"V-component_of_CURRENTS"},"data":[0,0,0,0,0,0,0,0,0,0,0,0,0,0,0,0,0,0,0,0,0,0,0,0,0,0,0,0,0,0,0,0,0,0,0,0,0,0,0,0,0,0,0,0,0,0,0,0,0,0,0,0,0,0,0,0,0,0,-0.022,-0.022,0,-0.0238,-0.0238,-0.0238,-0.0202,-0.0201,-0.02,-0.0199,-0.0235,-0.0237,-0.0239,0,0,0,0,0,0,0,0,0,0,0,0,0,-0.021,-0.021,-0.022,-0.022,-0.022,-0.0238,-0.0238,-0.0238,-0.0202,-0.0201,-0.02,-0.0198,-0.0234,-0.0236,-0.0239,0,0,0,0,0,0,0,0,0,0,0,0,0,-0.0219,-0.021,-0.022,-0.0205,-0.0204,-0.0238,-0.0238,-0.0238,-0.0203,-0.0201,-0.0199,-0.0198,-0.0233,-0.0236,-0.0239,-0.0291,0,0,-0.0248,-0.025,0,0,0,0,0,0,0,0,-0.0218,-0.0219,-0.0207,-0.0206,-0.0205,-0.0216,-0.0247,-0.0257,-0.0203,-0.0203,-0.0199,-0.0197,-0.0232,-0.0235,-0.0241,-0.0293,-0.0295,-0.0249,-0.025,-0.0252,-0.0253,0,0,0,0,0,0,0,-0.0218,-0.0219,-0.0226,-0.0207,-0.0206,-0.0216,-0.0215,-0.0249,-0.0226,-0.0203,-0.02,-0.0203,-0.0231,-0.0238,-0.0242,-0.0295,-0.0248,-0.0251,-0.0253,-0.0254,-0.0383,-0.0384,0,0,0,0,0,0,-0.0216,-0.0218,-0.0226,-0.0227,-0.0208,-0.0218,-0.0216,-0.0214,-0.0226,-0.0226,-0.0205,-0.0202,-0.0234,-0.0238,-0.0243,-0.0266,-0.0252,-0.0254,-0.0256,-0.0381,-0.0383,-0.0385,0,0,0,0,0,0,-0.0215,-0.0216,-0.0225,-0.0224,-0.0225,-0.0219,-0.0217,-0.0215,-0.0222,-0.0227,-0.0227,-0.0213,-0.0233,-0.0239,-0.0277,-0.0268,-0.0256,-0.0259,-0.0379,-0.0382,-0.0384,-0.0338,0,0,0,0,0,0,-0.0215,-0.0216,-0.022,-0.0223,-0.0225,-0.0252,-0.0219,-0.0217,-0.0227,-0.0223,-0.0235,-0.0236,-0.0232,-0.0273,-0.028,-0.0272,-0.0261,-0.0377,-0.038,-0.0383,-0.0338,-0.0339,-0.034,0,0,0,0,0,-0.0214,-0.0222,-0.022,-0.0221,-0.0229,-0.0253,-0.0256,-0.0246,-0.0229,-0.0244,-0.0248,-0.0236,-0.0296,-0.0277,-0.0285,-0.0278,-0.0376,-0.0379,-0.0383,-0.0337,-0.0339,-0.034,0,0,0,0,0,0,-0.022,-0.022,-0.0217,-0.0224,-0.0242,-0.0247,-0.0259,-0.0256,-0.0272,-0.0266,-0.0263,-0.0266,-0.0297,-0.0312,-0.029,-0.033,-0.0333,-0.0338,-0.0295,-0.0297,-0.0298,-0.0158,-0.0263,0,0,0,0,0,-0.0225,-0.0229,-0.0239,-0.0248,-0.0258,-0.0263,-0.0273,-0.027,-0.0282,-0.0285,-0.0293,-0.0307,-0.0322,-0.0327,-0.0355,-0.0383,-0.028,-0.0386,-0.0387,-0.0387,-0.0284,-0.0088,-0.0057,-0.0396,-0.0396,-0.0396,0,0,-0.0229,-0.0231,-0.0233,-0.025,-0.026,-0.0279,-0.0265,-0.0285,-0.0287,-0.0291,-0.0304,-0.0321,-0.0337,-0.0356,-0.037,-0.0361,-0.0269,-0.0392,-0.0391,-0.0285,-0.0087,-0.0052,-0.0021,-0.0399,-0.0398,-0.0398,0,0,-0.0243,-0.0245,-0.0254,-0.0274,-0.0296,-0.03,-0.0309,-0.0324,-0.0315,-0.035,-0.0335,-0.0311,-0.0394,-0.0337,-0.0335,-0.0359,-0.0289,-0.0427,-0.0299,-0.0113,-0.0079,-0.0048,0.0018,0.0055,-0.0415,-0.0415,-0.0415,0,-0.0247,-0.0256,-0.0265,-0.0287,-0.0289,-0.0309,-0.0317,-0.0328,-0.0352,-0.0289,-0.0356,-0.0301,-0.035,-0.0243,-0.027,-0.0344,-0.0268,-0.029,-0.01,-0.0066,-0.0034,0.0027,0.0068,-0.0413,-0.0413,-0.0413,-0.0413,0,-0.027,-0.0281,-0.0293,-0.0313,-0.0322,-0.0341,-0.0348,-0.0334,-0.0337,-0.0299,-0.0215,-0.0239,-0.0148,-0.0221,-0.0265,-0.0078,-0.0117,-0.0126,-0.0066,0.0006,0.0059,0.0102,-0.041,-0.0411,-0.0412,-0.0412,0,0,-0.0248,-0.0297,-0.03,-0.0279,-0.033,-0.0311,-0.0311,-0.0245,-0.0108,-0.0164,0.0037,-0.0036,0.0046,0.0059,0.0035,0.0157,0.0348,0.0107,0.0116,0.0226,0.0697,0.0571,0.0603,0.0387,0.0397,0.0404,0.0607,0,-0.0255,-0.0275,-0.0304,-0.0289,-0.0278,-0.0272,-0.0217,-0.0149,-0.0078,0.0103,0.0149,0.0287,0.012,0.0215,0.0308,0.0378,0.0481,0.0291,0.057,0.0578,0.0506,0.0659,0.0579,0.075,0.0649,0.0656,0.0661,0,-0.0237,-0.0251,-0.0239,-0.0172,-0.0157,-0.014,0.0058,0.0102,0.0322,0.0403,0.0568,0.0635,0.0803,0.0661,0.0869,0.0758,0.0752,0.0764,0.0773,0.0713,0.0538,0.0678,0.0832,0.0462,0.0727,0.0722,0.0717,0,-0.0118,-0.0169,-0.0132,-0.0135,-0.0087,-0.0016,0.0034,0.0228,0.0407,0.0661,0.0878,0.1026,0.1206,0.1241,0.1196,0.1086,0.1429,0.1285,0.1159,0.1143,0.1171,0.1143,0.1078,0.1493,0.1492,0.1492,0.1491,0,-0.0034,0.0025,-0.0068,-0.002,0.0136,0.0104,0.0371,0.0475,0.0734,0.105,0.1085,0.1392,0.1385,0.154,0.1404,0.143,0.1601,0.1273,0.1253,0.1156,0.1126,0.088,0.0669,0.1499,0.1497,0.1496,0.1495,0,0.0245,0.0124,0.0221,0.0211,0.0223,0.038,0.0574,0.0802,0.098,0.1412,0.1526,0.178,0.1949,0.1876,0.1975,0.1752,0.1546,0.1686,0.1496,0.145,0.0902,0.0697,0.0812,0.0617,0.1601,0.16,0.1599,0,0.0449,0.0486,0.046,0.0514,0.0538,0.0691,0.0842,0.0961,0.1216,0.1665,0.1927,0.2196,0.2425,0.2444,0.213,0.1921,0.1604,0.1656,0.1432,0.0947,0.0707,0.0614,0.0432,0.1432,0.143,0.1429,0.1427,0,0.0858,0.0803,0.0849,0.0904,0.1001,0.1168,0.1352,0.1571,0.1791,0.2108,0.2529,0.2727,0.2732,0.2541,0.2199,0.1976,0.1345,0.1607,0.1249,0.0725,0.0503,0.0276,0.1108,0.1412,0.1414,0.1415,0.1416,0.1416,0.1185,0.1272,0.121,0.1309,0.1428,0.1602,0.1767,0.1978,0.233,0.2759,0.2916,0.3218,0.2881,0.2415,0.1994,0.1172,0.1239,0.0894,0.0729,0.0714,0.0416,0.1139,0.1314,0.1315,0.1316,0.1317,0.1317,0,0.1455,0.1444,0.1589,0.1628,0.1808,0.1788,0.2082,0.2241,0.2591,0.299,0.3279,0.3371,0.2739,0.2104,0.1058,0.0417,0.0177,0.0082,-0.0079,-0.0196,0.0595,0.0462,0.029,0.029,0.0291,0.0291,0.0292,0.0292,0.1545,0.1631,0.164,0.1891,0.1977,0.2187,0.2336,0.2591,0.288,0.3332,0.3597,0.381,0.3439,0.144,-0.0038,-0.0409,-0.0887,-0.0898,-0.1133,-0.0688,-0.0627,-0.0569,-0.0744,-0.1165,-0.1167,-0.1873,-0.1881,-0.1887]}],[{"header":{"parameterUnit":"m.s-1","parameterCategory":2,"la1":30.2991,"la2":30.254,"lo1":-89.0895,"lo2":-89.0444,"dy":0.0017,"dx":0.0017,"nx":28,"ny":28,"refTime":"2023-07-31T03:00:00:Z","depth":"2","parameterNumber":2,"parameterNumberName":"U-component_of_CURRENTS"},"data":[0,0,0,0,0,0,0,0,0,0,0,0,0,0,0,0,0,0,0,0,0,0,0,0,0,0,0,0,0,0,0,0,0,0,0,0,0,0,0,0,0,0,0,0,0,0,0,0,0,0,0,0,0,0,0,0,0,0,0.2108,0.2109,0,0.2179,0.2179,0.218,0.2173,0.2173,0.2172,0.2171,0.2148,0.2148,0.2148,0,0,0,0,0,0,0,0,0,0,0,0,0,0.2013,0.2014,0.2108,0.2109,0.2111,0.2179,0.2179,0.218,0.2174,0.2173,0.2172,0.2171,0.2148,0.2148,0.2148,0,0,0,0,0,0,0,0,0,0,0,0,0,0.2062,0.2014,0.2108,0.2118,0.212,0.2179,0.2179,0.218,0.2174,0.2173,0.2171,0.217,0.2148,0.2148,0.2148,0.2172,0,0,0.2148,0.2148,0,0,0,0,0,0,0,0,0.2059,0.2065,0.2116,0.2118,0.212,0.2169,0.2137,0.2174,0.2174,0.215,0.2171,0.217,0.2149,0.2149,0.2161,0.217,0.2169,0.2148,0.2148,0.2148,0.2148,0,0,0,0,0,0,0,0.2056,0.2063,0.2133,0.2117,0.212,0.2135,0.214,0.2145,0.215,0.2152,0.2152,0.2166,0.2149,0.2161,0.2161,0.2169,0.2148,0.2148,0.2148,0.2149,0.2223,0.2224,0,0,0,0,0,0,0.2054,0.2059,0.213,0.2135,0.209,0.2138,0.2143,0.2152,0.2153,0.2153,0.2167,0.2166,0.2162,0.216,0.216,0.2218,0.2148,0.2149,0.2149,0.2221,0.2223,0.2225,0,0,0,0,0,0,0.2051,0.2059,0.2128,0.2102,0.2112,0.2141,0.215,0.2154,0.2174,0.2166,0.2164,0.2185,0.2161,0.2159,0.2181,0.2216,0.2149,0.2149,0.2218,0.2221,0.2224,0.2315,0,0,0,0,0,0,0.2048,0.2058,0.2075,0.2101,0.2113,0.2172,0.2152,0.2156,0.2185,0.2184,0.218,0.2177,0.216,0.2181,0.2181,0.2215,0.2149,0.2216,0.222,0.2223,0.231,0.2321,0.233,0,0,0,0,0,0.2044,0.2071,0.2075,0.2085,0.2132,0.2174,0.2182,0.2196,0.2187,0.2207,0.2206,0.2177,0.2203,0.2183,0.2183,0.2217,0.2214,0.2219,0.2223,0.2305,0.2319,0.233,0,0,0,0,0,0,0.2037,0.2075,0.2079,0.2115,0.2147,0.2174,0.2201,0.2207,0.2225,0.2219,0.2203,0.2201,0.2231,0.2215,0.2193,0.2249,0.2204,0.2208,0.2267,0.2279,0.2289,0.2281,0.2149,0,0,0,0,0,0.2046,0.2075,0.2108,0.2139,0.2156,0.218,0.2203,0.221,0.2227,0.2234,0.2235,0.2237,0.225,0.2256,0.226,0.2294,0.2304,0.2315,0.2326,0.2334,0.2328,0.2372,0.2385,0.2239,0.2239,0.2239,0,0,0.205,0.2077,0.2092,0.214,0.2163,0.2201,0.219,0.2226,0.2258,0.2228,0.227,0.2271,0.2267,0.2304,0.2317,0.2295,0.2394,0.234,0.2347,0.2336,0.2378,0.2392,0.2405,0.2242,0.2241,0.2241,0,0,0.2074,0.2098,0.213,0.2163,0.2207,0.2225,0.2239,0.2274,0.229,0.2334,0.2321,0.2344,0.2366,0.2375,0.238,0.245,0.2444,0.2454,0.2501,0.2545,0.2557,0.2568,0.2652,0.2669,0.2461,0.2461,0.2462,0,0.2076,0.2123,0.2147,0.219,0.2221,0.2238,0.2277,0.2306,0.2344,0.236,0.2354,0.2402,0.24,0.2445,0.2473,0.2472,0.2508,0.2456,0.2559,0.2569,0.2578,0.2661,0.2679,0.2466,0.2466,0.2465,0.2465,0,0.2126,0.2167,0.2191,0.2247,0.2282,0.2321,0.2359,0.2392,0.2412,0.2433,0.2482,0.2494,0.2517,0.2533,0.2527,0.2595,0.2607,0.2566,0.2527,0.2599,0.2682,0.2699,0.2473,0.2472,0.247,0.2469,0,0,0.212,0.2206,0.2217,0.2247,0.2315,0.2343,0.2403,0.2454,0.249,0.2527,0.2577,0.2614,0.2612,0.2618,0.2621,0.2662,0.2783,0.265,0.265,0.2734,0.2923,0.2889,0.2904,0.2763,0.2766,0.2767,0.2974,0,0.215,0.2231,0.227,0.2338,0.2378,0.2415,0.2465,0.251,0.2554,0.2607,0.2626,0.2672,0.2649,0.2675,0.2712,0.2771,0.2824,0.2733,0.2839,0.2843,0.2802,0.2919,0.2671,0.2828,0.2991,0.2993,0.2995,0,0.2188,0.2239,0.231,0.2378,0.2397,0.2437,0.2512,0.2559,0.2629,0.2665,0.271,0.2731,0.2817,0.2769,0.2907,0.2856,0.2892,0.2926,0.2934,0.287,0.2838,0.2772,0.2852,0.3023,0.3021,0.3019,0.3017,0,0.2175,0.2263,0.2317,0.2346,0.2427,0.2458,0.2497,0.257,0.2627,0.2708,0.2774,0.2836,0.2921,0.2957,0.3055,0.2989,0.3211,0.3121,0.3123,0.3124,0.2913,0.289,0.319,0.319,0.3189,0.3188,0.3188,0,0.2199,0.2234,0.2312,0.2345,0.239,0.2449,0.251,0.256,0.2662,0.2746,0.2799,0.291,0.2974,0.3105,0.312,0.3224,0.3274,0.3162,0.3174,0.2945,0.2923,0.3064,0.3047,0.3196,0.3195,0.3193,0.3192,0,0.2168,0.223,0.2278,0.2362,0.2386,0.2411,0.2515,0.2571,0.2678,0.2803,0.2846,0.3028,0.3199,0.3274,0.3398,0.3348,0.3412,0.3418,0.3176,0.3153,0.3274,0.3259,0.3424,0.3424,0.3424,0.3425,0.3425,0,0.2157,0.2185,0.2267,0.2294,0.2328,0.2385,0.2434,0.2551,0.2639,0.2883,0.296,0.318,0.3305,0.3508,0.3464,0.3501,0.3521,0.328,0.3065,0.3303,0.3298,0.3282,0.3267,0.2857,0.2852,0.2849,0.2846,0,0.211,0.2137,0.2175,0.2235,0.2287,0.2355,0.245,0.2526,0.2694,0.284,0.3069,0.3193,0.3376,0.3325,0.3376,0.3333,0.3241,0.3206,0.3546,0.2823,0.2781,0.2772,0.2773,0.2814,0.2817,0.282,0.2821,0.2823,0.2042,0.2049,0.2099,0.215,0.2221,0.2306,0.2344,0.2492,0.2633,0.2765,0.2967,0.3039,0.3111,0.3034,0.2998,0.2948,0.3116,0.2945,0.2951,0.2962,0.2846,0.2804,0.2825,0.2828,0.2831,0.2833,0.2835,0,0.1931,0.1967,0.2013,0.2071,0.2122,0.221,0.234,0.2362,0.2503,0.2605,0.2708,0.2498,0.2523,0.2613,0.2492,0.2498,0.2398,0.2402,0.2255,0.2292,0.2323,0.2167,0.197,0.1967,0.1964,0.1961,0,0,0.1857,0.1855,0.1894,0.1941,0.2017,0.2068,0.2134,0.2196,0.2265,0.2202,0.2182,0.2277,0.2509,0.2158,0.2161,0.2069,0.214,0.1981,0.2685,0.2548,0.2575,0.2664,0.247,0,0,0,0,0]},{"header":{"parameterUnit":"m.s-1","parameterCategory":2,"la1":30.2991,"la2":30.254,"lo1":-89.0895,"lo2":-89.0444,"dy":0.0017,"dx":0.0017,"nx":28,"ny":28,"refTime":"2023-07-31T03:00:00:Z","depth":"2","parameterNumber":3,"parameterNumberName":"V-component_of_CURRENTS"},"data":[0,0,0,0,0,0,0,0,0,0,0,0,0,0,0,0,0,0,0,0,0,0,0,0,0,0,0,0,0,0,0,0,0,0,0,0,0,0,0,0,0,0,0,0,0,0,0,0,0,0,0,0,0,0,0,0,0,0,-0.051,-0.0511,0,-0.0598,-0.0599,-0.06,-0.0685,-0.0686,-0.0686,-0.0687,-0.0765,-0.0766,-0.0768,0,0,0,0,0,0,0,0,0,0,0,0,0,-0.0459,-0.046,-0.051,-0.0511,-0.0512,-0.0598,-0.0599,-0.0601,-0.0684,-0.0686,-0.0687,-0.0688,-0.0765,-0.0766,-0.0768,0,0,0,0,0,0,0,0,0,0,0,0,0,-0.051,-0.046,-0.051,-0.0562,-0.0568,-0.0597,-0.0599,-0.0601,-0.0684,-0.0686,-0.0687,-0.0688,-0.0764,-0.0766,-0.0768,-0.0754,0,0,-0.0774,-0.0775,0,0,0,0,0,0,0,0,-0.0507,-0.0512,-0.0554,-0.0559,-0.0565,-0.0629,-0.061,-0.0651,-0.0684,-0.0643,-0.0687,-0.0689,-0.0716,-0.0722,-0.074,-0.0758,-0.0761,-0.0774,-0.0775,-0.0776,-0.0777,0,0,0,0,0,0,0,-0.0503,-0.0509,-0.0547,-0.0554,-0.0561,-0.0596,-0.0605,-0.0618,-0.0673,-0.0646,-0.0652,-0.0657,-0.072,-0.0738,-0.0742,-0.0763,-0.0774,-0.0776,-0.0777,-0.0778,-0.0814,-0.0813,0,0,0,0,0,0,-0.0484,-0.0505,-0.0545,-0.055,-0.0536,-0.0596,-0.0605,-0.0609,-0.0673,-0.0684,-0.0656,-0.0661,-0.0734,-0.074,-0.0745,-0.0759,-0.0776,-0.0778,-0.0779,-0.0814,-0.0814,-0.0813,0,0,0,0,0,0,-0.0482,-0.0486,-0.0541,-0.0528,-0.0537,-0.0595,-0.0599,-0.061,-0.0639,-0.068,-0.0691,-0.0673,-0.0735,-0.0742,-0.0756,-0.0762,-0.0779,-0.0781,-0.0814,-0.0814,-0.0813,-0.077,0,0,0,0,0,0,-0.048,-0.0485,-0.0489,-0.0526,-0.0537,-0.0549,-0.0598,-0.0611,-0.0638,-0.0646,-0.0698,-0.0707,-0.0737,-0.0753,-0.0758,-0.0765,-0.0782,-0.0814,-0.0814,-0.0814,-0.0772,-0.0768,-0.0765,0,0,0,0,0,-0.0478,-0.0465,-0.0488,-0.0493,-0.0537,-0.0548,-0.0556,-0.0604,-0.0637,-0.0638,-0.0676,-0.0706,-0.0755,-0.0754,-0.076,-0.0767,-0.0814,-0.0814,-0.0814,-0.0773,-0.0769,-0.0765,0,0,0,0,0,0,-0.0443,-0.0474,-0.0499,-0.0498,-0.0519,-0.0561,-0.0566,-0.0601,-0.0634,-0.0645,-0.0694,-0.0704,-0.072,-0.0744,-0.0741,-0.0777,-0.0793,-0.0794,-0.076,-0.0757,-0.0753,-0.0763,-0.0784,0,0,0,0,0,-0.0435,-0.0436,-0.047,-0.0468,-0.0477,-0.0524,-0.0539,-0.0568,-0.0599,-0.0617,-0.0655,-0.0694,-0.0721,-0.0738,-0.076,-0.0771,-0.0808,-0.0783,-0.078,-0.0777,-0.0789,-0.0847,-0.085,-0.0812,-0.0812,-0.0812,0,0,-0.0419,-0.0437,-0.0438,-0.0461,-0.0485,-0.0484,-0.0537,-0.0548,-0.0558,-0.0616,-0.064,-0.0677,-0.0719,-0.0737,-0.0748,-0.076,-0.0802,-0.0777,-0.0774,-0.0788,-0.0847,-0.0851,-0.0855,-0.0812,-0.0812,-0.0812,0,0,-0.0374,-0.0404,-0.0387,-0.0402,-0.0428,-0.0455,-0.0455,-0.0497,-0.0529,-0.0547,-0.0599,-0.0639,-0.0673,-0.0715,-0.0738,-0.0728,-0.0778,-0.0737,-0.0736,-0.0791,-0.0795,-0.0799,-0.0827,-0.0834,-0.0741,-0.0741,-0.0741,0,-0.0355,-0.0348,-0.0382,-0.0371,-0.0383,-0.0436,-0.0424,-0.0453,-0.0498,-0.0527,-0.0545,-0.0634,-0.0666,-0.0713,-0.0718,-0.0723,-0.0757,-0.0745,-0.0787,-0.0793,-0.0798,-0.0826,-0.0834,-0.0739,-0.0739,-0.074,-0.074,0,-0.0299,-0.0301,-0.0289,-0.0298,-0.0311,-0.0307,-0.0348,-0.0373,-0.042,-0.0464,-0.0523,-0.0579,-0.0641,-0.0658,-0.0688,-0.0743,-0.0754,-0.0771,-0.0798,-0.0799,-0.0828,-0.0838,-0.0736,-0.0737,-0.0738,-0.0738,0,0,-0.0246,-0.0249,-0.0249,-0.0253,-0.0278,-0.0284,-0.0296,-0.0335,-0.0361,-0.0424,-0.0462,-0.054,-0.0599,-0.0631,-0.0683,-0.0743,-0.0798,-0.0776,-0.078,-0.0805,-0.0909,-0.0825,-0.0827,-0.0829,-0.0831,-0.0832,-0.0907,0,-0.0199,-0.0165,-0.0183,-0.0166,-0.0161,-0.0213,-0.0222,-0.0269,-0.0321,-0.0365,-0.046,-0.0505,-0.0579,-0.0609,-0.0685,-0.0758,-0.0826,-0.0776,-0.0905,-0.0908,-0.0834,-0.0836,-0.0796,-0.0852,-0.0916,-0.0918,-0.0919,0,-0.0155,-0.0139,-0.0112,-0.0126,-0.0129,-0.013,-0.0179,-0.0191,-0.0265,-0.0303,-0.0387,-0.0454,-0.0549,-0.0602,-0.0767,-0.0733,-0.0829,-0.0896,-0.0901,-0.0849,-0.0842,-0.0867,-0.0868,-0.0936,-0.0935,-0.0933,-0.0932,0,-0.0133,-0.0105,-0.0088,-0.009,-0.01,-0.0114,-0.0127,-0.0188,-0.0184,-0.0267,-0.0254,-0.0412,-0.0436,-0.0606,-0.0735,-0.0766,-0.0892,-0.0947,-0.0969,-0.0963,-0.0968,-0.0959,-0.1084,-0.1084,-0.1083,-0.1083,-0.1083,0,-0.0104,-0.0102,-0.0078,-0.0077,-0.0061,-0.0084,-0.0088,-0.0121,-0.013,-0.0088,-0.022,-0.0191,-0.0439,-0.0528,-0.0705,-0.0831,-0.0871,-0.0971,-0.0981,-0.0946,-0.0934,-0.1043,-0.1038,-0.1086,-0.1085,-0.1085,-0.1084,0,-0.0128,-0.0103,-0.0087,-0.0069,-0.0059,-0.0061,-0.0029,-0.0011,-0.0022,0.0044,0.0041,-0.0025,-0.0127,-0.0352,-0.0584,-0.0733,-0.0901,-0.0942,-0.0861,-0.086,-0.0958,-0.0949,-0.1012,-0.101,-0.1008,-0.1007,-0.1005,0,-0.0162,-0.0147,-0.0087,-0.0055,-0.0055,-0.0034,0.0003,0.0024,0.0086,0.0181,0.0249,0.0183,0.0192,-0.0097,-0.0414,-0.0705,-0.0789,-0.0847,-0.0912,-0.0949,-0.0953,-0.0947,-0.0942,-0.0907,-0.0905,-0.0904,-0.0902,0,-0.0221,-0.0187,-0.0153,-0.0061,-0.0008,0.0067,0.014,0.0233,0.0319,0.044,0.0615,0.064,0.0381,0.0119,-0.0279,-0.0484,-0.0806,-0.0818,-0.0896,-0.0902,-0.0848,-0.0852,-0.0851,-0.0888,-0.0889,-0.089,-0.0891,-0.0892,-0.0266,-0.0236,-0.0144,-0.006,0.0028,0.0189,0.0304,0.0457,0.0655,0.0877,0.087,0.0938,0.0572,0.0099,-0.0231,-0.0611,-0.0653,-0.0815,-0.0823,-0.0831,-0.0777,-0.0719,-0.0724,-0.0724,-0.0725,-0.0725,-0.0726,0,-0.0271,-0.0206,-0.014,0.0016,0.0156,0.0201,0.0427,0.0612,0.0929,0.106,0.1209,0.0942,0.0642,0.024,-0.0298,-0.062,-0.0692,-0.0714,-0.0762,-0.0774,-0.0785,-0.0731,-0.0665,-0.0666,-0.0666,-0.0666,0,0,-0.0257,-0.0166,-0.0103,0.0127,0.0245,0.0498,0.067,0.0957,0.1124,0.1327,0.1344,0.1232,0.0761,0.038,-0.0073,-0.0356,-0.0483,-0.0406,-0.0425,-0.044,-0.0446,-0.0818,-0.0742,0,0,0,0,0]}],[{"header":{"parameterUnit":"m.s-1","parameterCategory":2,"la1":30.2991,"la2":30.254,"lo1":-89.0895,"lo2":-89.0444,"dy":0.0017,"dx":0.0017,"nx":28,"ny":28,"refTime":"2023-07-31T03:00:00:Z","depth":"4","parameterNumber":2,"parameterNumberName":"U-component_of_CURRENTS"},"data":[0,0,0,0,0,0,0,0,0,0,0,0,0,0,0,0,0,0,0,0,0,0,0,0,0,0,0,0,0,0,0,0,0,0,0,0,0,0,0,0,0,0,0,0,0,0,0,0,0,0,0,0,0,0,0,0,0,0,0.1036,0.1037,0,0.1102,0.1103,0.1103,0.115,0.1151,0.1152,0.1152,0.1225,0.1226,0.1227,0,0,0,0,0,0,0,0,0,0,0,0,0,0.0955,0.0956,0.1036,0.1037,0.1038,0.1102,0.1103,0.1104,0.115,0.1151,0.1152,0.1153,0.1224,0.1226,0.1227,0,0,0,0,0,0,0,0,0,0,0,0,0,0.1,0.0957,0.1036,0.1072,0.1076,0.1102,0.1103,0.1104,0.115,0.1151,0.1152,0.1153,0.1224,0.1226,0.1228,0.1218,0,0,0.1233,0.1234,0,0,0,0,0,0,0,0,0.0997,0.1002,0.1066,0.107,0.1074,0.1122,0.1101,0.1144,0.115,0.1118,0.1152,0.1154,0.1193,0.1197,0.1202,0.1222,0.1225,0.1233,0.1235,0.1235,0.1236,0,0,0,0,0,0,0,0.0994,0.0999,0.1059,0.1067,0.1072,0.1087,0.1094,0.1109,0.1146,0.1121,0.1126,0.1138,0.1195,0.12,0.1204,0.1226,0.1233,0.1235,0.1236,0.1237,0.134,0.1341,0,0,0,0,0,0,0.0991,0.0996,0.1057,0.1061,0.1042,0.1088,0.1096,0.1103,0.1146,0.1154,0.1137,0.114,0.1196,0.1202,0.1207,0.129,0.1235,0.1237,0.1238,0.1338,0.134,0.1342,0,0,0,0,0,0,0.0989,0.0996,0.1054,0.1033,0.1043,0.1089,0.1096,0.1104,0.1146,0.1159,0.1167,0.1176,0.1197,0.1204,0.1266,0.129,0.1238,0.124,0.1336,0.1339,0.1341,0.1398,0,0,0,0,0,0,0.0987,0.0994,0.101,0.1033,0.1044,0.1084,0.1096,0.1104,0.1152,0.1157,0.1194,0.12,0.1199,0.1263,0.1268,0.1292,0.1241,0.1334,0.1338,0.134,0.1394,0.1402,0.1409,0,0,0,0,0,0.0983,0.0996,0.101,0.1019,0.106,0.1085,0.1092,0.1125,0.1153,0.1168,0.1214,0.1201,0.1284,0.1267,0.1271,0.1296,0.1333,0.1337,0.134,0.1391,0.1401,0.1409,0,0,0,0,0,0,0.0971,0.1003,0.1019,0.1043,0.107,0.1095,0.1116,0.1146,0.1193,0.1212,0.1228,0.1237,0.1298,0.1293,0.1273,0.1335,0.1303,0.1308,0.134,0.1349,0.1356,0.1374,0.1243,0,0,0,0,0,0.0974,0.0994,0.1024,0.1046,0.106,0.1096,0.1118,0.1146,0.1185,0.1208,0.1237,0.1272,0.1308,0.1329,0.1351,0.1389,0.1394,0.1406,0.1413,0.1419,0.1438,0.1478,0.149,0.1354,0.1354,0.1354,0,0,0.0973,0.0998,0.1008,0.1046,0.1068,0.1093,0.1112,0.1154,0.1192,0.1208,0.1273,0.1303,0.1327,0.1373,0.1397,0.1377,0.1459,0.1424,0.1429,0.1445,0.1483,0.1496,0.1508,0.1356,0.1356,0.1355,0,0,0.0974,0.1004,0.1018,0.1041,0.1088,0.1113,0.1134,0.1179,0.1218,0.128,0.1309,0.1365,0.1405,0.1433,0.1451,0.1513,0.1501,0.1515,0.1563,0.1602,0.1613,0.1624,0.1636,0.1647,0.1513,0.1513,0.1513,0,0.0975,0.1,0.1027,0.1046,0.1075,0.1126,0.1152,0.1194,0.126,0.1303,0.131,0.1414,0.1433,0.1505,0.1534,0.153,0.1546,0.1526,0.1612,0.1622,0.1632,0.1642,0.1653,0.1516,0.1516,0.1516,0.1515,0,0.0975,0.101,0.1021,0.1064,0.1094,0.1129,0.1184,0.1242,0.1301,0.1342,0.1438,0.1477,0.154,0.1551,0.1569,0.165,0.1636,0.1619,0.1588,0.1649,0.1655,0.1666,0.1521,0.152,0.1519,0.1518,0,0,0.0942,0.1009,0.1017,0.1045,0.1113,0.1135,0.1214,0.1294,0.1362,0.1427,0.151,0.1585,0.162,0.1646,0.167,0.1712,0.1791,0.1708,0.1708,0.1718,0.1871,0.1782,0.1784,0.1796,0.1799,0.1801,0.1843,0,0.0941,0.0982,0.1022,0.1073,0.1099,0.1175,0.1238,0.1321,0.1403,0.1493,0.1564,0.1653,0.165,0.1707,0.1744,0.1793,0.1826,0.1781,0.1813,0.1814,0.1726,0.1796,0.1809,0.1851,0.1854,0.1856,0.1857,0,0.0921,0.0962,0.1007,0.1093,0.1111,0.1158,0.1282,0.1349,0.1485,0.1558,0.1656,0.1716,0.1819,0.1801,0.1893,0.187,0.1885,0.1902,0.1903,0.1812,0.1746,0.1781,0.1876,0.1875,0.1873,0.1872,0.1871,0,0.0864,0.0948,0.0992,0.1016,0.1116,0.1176,0.1249,0.1377,0.1458,0.1625,0.1699,0.1805,0.1887,0.1927,0.1977,0.1953,0.2059,0.2012,0.1935,0.1927,0.1966,0.1955,0.2072,0.2072,0.2071,0.2071,0.2071,0,0.0829,0.0856,0.0981,0.0994,0.1074,0.1157,0.127,0.1361,0.1512,0.161,0.1733,0.1823,0.1932,0.2002,0.2012,0.2014,0.2081,0.1965,0.1945,0.1986,0.1977,0.1973,0.1961,0.2073,0.2073,0.2072,0.2072,0,0.0725,0.0806,0.0854,0.0985,0.1042,0.1094,0.1277,0.1353,0.151,0.1646,0.1714,0.1874,0.1977,0.2042,0.2126,0.2056,0.207,0.2049,0.2099,0.2077,0.1895,0.1885,0.1953,0.1951,0.1948,0.1947,0.1945,0,0.0666,0.0682,0.0827,0.0886,0.0951,0.1077,0.1164,0.1338,0.1421,0.166,0.1695,0.1878,0.1969,0.1992,0.2072,0.2085,0.2059,0.2034,0.1959,0.1916,0.189,0.1883,0.1877,0.1942,0.1941,0.1941,0.194,0,0.0546,0.0605,0.0654,0.0791,0.0889,0.0996,0.1134,0.1198,0.1402,0.1549,0.1675,0.1768,0.1875,0.1941,0.1984,0.198,0.2035,0.2011,0.2014,0.1943,0.1903,0.1878,0.1874,0.1933,0.1934,0.1935,0.1935,0,0.0462,0.0467,0.0569,0.0677,0.0796,0.0889,0.0987,0.1116,0.1227,0.1484,0.1528,0.1711,0.1865,0.1889,0.1922,0.1931,0.1887,0.1799,0.1811,0.182,0.1761,0.169,0.1657,0,0,0,0,0,0.0395,0.0399,0.0468,0.0579,0.0695,0.0785,0.0951,0.1056,0.126,0.1305,0.1425,0.153,0.1644,0.1728,0.171,0.1846,0.1875,0.1814,0.1773,0.1892,0.1901,0.1845,0,0,0,0,0,0,0.0348,0.0389,0.0417,0.0483,0.056,0.0677,0.079,0.0933,0.0976,0.1191,0.1253,0.1415,0.1529,0.1629,0.1669,0.1695,0.1634,0.1927,0.1922,0.1887,0.1895,0.1902,0.1848,0,0,0,0,0]},{"header":{"parameterUnit":"m.s-1","parameterCategory":2,"la1":30.2991,"la2":30.254,"lo1":-89.0895,"lo2":-89.0444,"dy":0.0017,"dx":0.0017,"nx":28,"ny":28,"refTime":"2023-07-31T03:00:00:Z","depth":"4","parameterNumber":3,"parameterNumberName":"V-component_of_CURRENTS"},"data":[0,0,0,0,0,0,0,0,0,0,0,0,0,0,0,0,0,0,0,0,0,0,0,0,0,0,0,0,0,0,0,0,0,0,0,0,0,0,0,0,0,0,0,0,0,0,0,0,0,0,0,0,0,0,0,0,0,0,0.0055,0.0055,0,0.0033,0.0033,0.0033,-0.001,-0.0011,-0.0012,-0.0012,-0.0048,-0.0048,-0.0048,0,0,0,0,0,0,0,0,0,0,0,0,0,0.0036,0.0037,0.0055,0.0055,0.0055,0.0033,0.0033,0.0033,-0.001,-0.0011,-0.0012,-0.0013,-0.0048,-0.0048,-0.0048,0,0,0,0,0,0,0,0,0,0,0,0,0,0.0033,0.0037,0.0055,0.003,0.0027,0.0033,0.0033,0.0033,-0.0009,-0.0011,-0.0012,-0.0013,-0.0048,-0.0048,-0.0048,-0.0021,0,0,-0.0048,-0.0049,0,0,0,0,0,0,0,0,0.0033,0.0034,0.0034,0.0032,0.0029,0.0012,0.0013,0.0014,-0.0009,0.0006,-0.0012,-0.0014,-0.0029,-0.0031,-0.003,-0.0022,-0.0024,-0.0048,-0.0049,-0.0049,-0.0049,0,0,0,0,0,0,0,0.0034,0.0035,0.0048,0.0034,0.0031,0.0011,0.001,0.0013,-0.0003,0.0004,0.0001,-0.0003,-0.003,-0.003,-0.0031,-0.0024,-0.0048,-0.0049,-0.0049,-0.0049,-0.0031,-0.003,0,0,0,0,0,0,0.0037,0.0035,0.0048,0.0047,0.0026,0.0013,0.0011,0.002,-0.0003,-0.0008,-0.0001,-0.0005,-0.0029,-0.0031,-0.0032,-0.001,-0.0049,-0.0049,-0.0049,-0.0031,-0.0031,-0.003,0,0,0,0,0,0,0.0037,0.0039,0.0049,0.0039,0.0038,0.0015,0.0025,0.002,0.0018,-0.0007,-0.0013,0.0,-0.003,-0.0032,-0.0029,-0.0012,-0.0049,-0.0049,-0.0032,-0.0031,-0.003,0.0041,0,0,0,0,0,0,0.0037,0.004,0.0049,0.004,0.0039,0.0066,0.0026,0.0021,0.0017,0.0013,-0.0007,-0.0012,-0.0031,-0.0028,-0.0029,-0.0012,-0.0049,-0.0033,-0.0032,-0.0031,0.0038,0.0044,0.0049,0,0,0,0,0,0.0037,0.0066,0.005,0.0052,0.0053,0.0068,0.0067,0.0044,0.0019,0.0034,0.001,-0.0011,-0.0023,-0.0027,-0.0028,-0.0011,-0.0033,-0.0032,-0.0031,0.0035,0.0043,0.0049,0,0,0,0,0,0,0.0066,0.0064,0.0047,0.0074,0.0072,0.006,0.0072,0.0051,0.0045,0.0035,0.0004,-0.0,0.0004,-0.0011,-0.0015,-0.0006,-0.0035,-0.0033,0.0016,0.0023,0.0028,0.0028,-0.0049,0,0,0,0,0,0.0076,0.0095,0.0086,0.0106,0.0109,0.0089,0.009,0.0074,0.0065,0.006,0.0046,0.0025,0.0011,0.0011,-0.0001,0.0017,-0.0037,0.0023,0.0029,0.0034,0.0032,-0.0054,-0.0056,-0.0026,-0.0026,-0.0026,0,0,0.0092,0.0092,0.0103,0.0113,0.0109,0.0134,0.0088,0.0098,0.0113,0.0059,0.0081,0.0048,0.0019,0.0029,0.003,0.0019,0.0002,0.0035,0.004,0.0035,-0.0053,-0.0056,-0.0059,-0.0025,-0.0026,-0.0026,0,0,0.0142,0.0136,0.017,0.0177,0.0175,0.0168,0.0173,0.0166,0.0157,0.017,0.0125,0.0099,0.0102,0.0074,0.006,0.0092,0.0031,0.0092,0.0129,0.0047,0.0043,0.0039,-0.0013,-0.0022,0.01,0.01,0.01,0,0.0157,0.0199,0.0183,0.0218,0.0228,0.0189,0.0226,0.0222,0.0215,0.0204,0.0187,0.014,0.012,0.0101,0.0112,0.0105,0.0054,0.0108,0.0053,0.0047,0.0042,-0.001,-0.0021,0.0103,0.0103,0.0103,0.0102,0,0.0233,0.0264,0.0288,0.0317,0.0328,0.0355,0.0343,0.0345,0.0321,0.0299,0.0271,0.0226,0.019,0.0183,0.0163,0.0122,0.0098,0.0065,0.0034,0.0043,-0.0012,-0.0025,0.0109,0.0107,0.0106,0.0105,0,0,0.0269,0.033,0.0337,0.0359,0.0379,0.0392,0.042,0.042,0.0411,0.0387,0.0364,0.0333,0.0276,0.0255,0.021,0.0147,0.0079,0.0101,0.0095,0.005,-0.009,-0.008,-0.0093,0.0027,0.0025,0.0023,-0.0105,0,0.0329,0.0413,0.0426,0.0492,0.0528,0.0506,0.0531,0.0517,0.0486,0.0456,0.0381,0.0345,0.0314,0.028,0.0216,0.0103,0.0045,0.0118,-0.0092,-0.0097,-0.0091,-0.0108,0.0016,-0.0115,-0.0119,-0.0121,-0.0122,0,0.0394,0.0439,0.0522,0.0562,0.0574,0.0606,0.0601,0.0616,0.0564,0.0532,0.047,0.0399,0.0318,0.0275,0.0096,0.0141,0.0039,-0.0049,-0.0057,-0.0085,-0.0112,-0.0133,-0.0147,-0.0145,-0.0143,-0.0141,-0.014,0,0.041,0.0497,0.0561,0.0581,0.0627,0.0647,0.0662,0.0636,0.0631,0.0566,0.053,0.0423,0.0349,0.0208,0.005,0.0058,-0.0164,-0.018,-0.0264,-0.0264,-0.0265,-0.026,-0.0317,-0.0317,-0.0316,-0.0316,-0.0316,0,0.0455,0.0497,0.0576,0.0605,0.0654,0.0679,0.0703,0.0689,0.0667,0.0649,0.0564,0.0504,0.032,0.0178,0.0043,-0.0145,-0.0173,-0.0265,-0.0306,-0.0228,-0.0217,-0.0274,-0.0267,-0.0321,-0.032,-0.0319,-0.0318,0,0.0442,0.0505,0.0566,0.0639,0.0662,0.0689,0.0735,0.0743,0.0723,0.069,0.0669,0.0539,0.0357,0.0179,-0.0066,-0.0154,-0.0334,-0.0393,-0.0278,-0.0309,-0.0373,-0.0361,-0.0501,-0.0502,-0.0503,-0.0503,-0.0504,0,0.0438,0.0479,0.0574,0.061,0.0643,0.0699,0.0734,0.0758,0.0765,0.0708,0.0682,0.0517,0.0412,0.0091,-0.0096,-0.0353,-0.0384,-0.0459,-0.0427,-0.0371,-0.0397,-0.0383,-0.0371,-0.0505,-0.0505,-0.0505,-0.0506,0,0.0416,0.0456,0.051,0.0598,0.0654,0.0707,0.0762,0.0775,0.0793,0.0771,0.0679,0.0523,0.0317,0.0086,-0.0115,-0.0297,-0.0401,-0.0468,-0.0468,-0.0438,-0.0378,-0.0399,-0.0386,-0.0508,-0.0508,-0.0508,-0.0508,0,0.0397,0.0426,0.0521,0.0584,0.0657,0.0714,0.0739,0.0765,0.0778,0.0737,0.0699,0.0501,0.0384,0.0112,-0.0075,-0.0251,-0.0291,-0.0325,-0.0333,-0.0332,-0.0239,-0.0135,-0.0234,0,0,0,0,0,0.0393,0.0444,0.0502,0.0594,0.0658,0.0701,0.0763,0.0787,0.081,0.0753,0.0737,0.0555,0.0278,0.0148,-0.0029,-0.0102,-0.033,-0.0314,-0.0374,-0.0524,-0.052,-0.0439,0,0,0,0,0,0,0.041,0.0473,0.0507,0.0593,0.0641,0.072,0.0759,0.0765,0.074,0.073,0.0578,0.052,0.0238,0.0371,-0.0034,-0.0089,-0.0145,-0.0445,-0.0448,-0.0525,-0.0522,-0.052,-0.0435,0,0,0,0,0]}]]